Weather reports worldwide

Advertisment
Helgoland, Germany (10015): temperature & dewpoint: 12.01.2020 12:00:00 - 18.01.2020 12:00:00 (CET)Helgoland, Germany (10015): wind speed & gusts: 12.01.2020 12:00:00 - 18.01.2020 12:00:00 (CET)Helgoland, Germany (10015): wind direction: 12.01.2020 12:00:00 - 18.01.2020 12:00:00 (CET)Helgoland, Germany (10015): reduced air pressure: 12.01.2020 12:00:00 - 18.01.2020 12:00:00 (CET)Helgoland, Germany (10015): visibility: 12.01.2020 12:00:00 - 18.01.2020 12:00:00 (CET)Helgoland, Germany (10015): sunshine duration: 12.01.2020 12:00:00 - 18.01.2020 12:00:00 (CET)Helgoland, Germany (10015): precipitation: 12.01.2020 12:00:00 - 18.01.2020 12:00:00 (CET)
Date & Time tt [°C] td [°C] ff [km/h] ff [kn] fx [km/h] fx [kn] dd ppp [hPa] vv [km] sd [min] rr [mm]
18.01.2020 12:00:00 5,7 3,2 18 10 45 25 WSW 1017,9 21 0 1,7
18.01.2020 11:00:00 5,4 3,4 30 16 48 26 W 1017,8 6 0 1,1
18.01.2020 10:00:00 6,3 3,5 32 17 51 28 W 1016,9 17 0 0,2
18.01.2020 09:00:00 6,1 3,3 32 17 62 33 WSW 1016,0 26 0 0,4
18.01.2020 08:00:00 5,2 4,0 44 24 73 39 SW 1015,8 2,7 0 0,3
18.01.2020 07:00:00 6,1 3,8 37 20 60 32 SW 1015,0 15 0 0,0
18.01.2020 06:00:00 7,1 3,6 35 19 55 30 WSW 1014,7 17 0 0,0
18.01.2020 05:00:00 7,1 3,1 38 20 53 28 WSW 1014,5 20 0 0,0
18.01.2020 04:00:00 6,3 2,8 32 17 65 35 W 1014,4 16 0 0,0
18.01.2020 03:00:00 6,6 3,3 36 19 64 35 W 1013,8 17 0 0,0
18.01.2020 02:00:00 6,2 4,0 39 21 64 35 WSW 1012,7 14 0 0,0
18.01.2020 01:00:00 7,0 4,7 44 24 64 35 WSW 1011,6 18 0 0,0
18.01.2020 00:00:00 6,9 4,8 40 22 58 31 SW 1011,1 18 0 0,0
17.01.2020 23:00:00 7,6 5,4 34 18 50 27 SW 1011,2 19 0 0,0
17.01.2020 22:00:00 7,8 5,7 31 17 45 24 SW 1010,9 19 0 0,0
17.01.2020 21:00:00 7,8 6,5 28 15 41 22 SW 1010,9 14 0 0,0
17.01.2020 20:00:00 7,8 7,2 24 13 35 19 SSW 1010,9 7 0 0,1
17.01.2020 19:00:00 7,7 7,1 23 12 31 17 SSW 1010,8 7 0 0,2
17.01.2020 18:00:00 7,6 6,7 19 11 29 15 SSW 1011,0 10 0 0,5
17.01.2020 17:00:00 7,9 6,5 19 10 28 15 SSW 1010,9 16 0 0,0
17.01.2020 16:00:00 7,9 6,1 21 11 36 19 SW 1010,9 18 0 0,0
17.01.2020 15:00:00 8,3 5,8 24 13 36 20 SW 1010,8 26 0 0,0
17.01.2020 14:00:00 8,0 5,7 20 11 32 17 SSW 1011,2 26 0 0,0
17.01.2020 13:00:00 7,8 5,4 22 12 31 17 S 1011,6 28 0 0,0
17.01.2020 12:00:00 7,8 5,1 21 11 36 20 S 1012,2 28 1 0,0
17.01.2020 11:00:00 7,3 4,9 22 12 35 19 S 1012,7 26 48 0,0
17.01.2020 10:00:00 7,3 5,0 23 13 33 18 S 1012,9 22 29 0,0
17.01.2020 09:00:00 7,3 5,1 25 13 37 20 S 1013,0 22 0 0,0
17.01.2020 08:00:00 7,3 5,4 21 11 34 19 SSE 1013,2 20 0 0,0
17.01.2020 07:00:00 7,6 5,4 21 12 31 17 S 1014,0 22 0 0,0
17.01.2020 06:00:00 7,7 5,4 22 12 35 19 S 1014,4 23 0 0,0
17.01.2020 05:00:00 7,4 5,4 24 13 34 18 S 1015,2 21 0 0,0
17.01.2020 04:00:00 7,4 5,4 25 13 34 19 S 1015,7 21 0 0,0
17.01.2020 03:00:00 7,4 5,4 20 11 31 17 SSE 1016,6 23 0 0,0
17.01.2020 02:00:00 7,6 5,2 22 12 32 17 S 1017,5 24 0 0,0
17.01.2020 01:00:00 7,4 5,3 23 12 41 22 S 1017,7 24 0 0,0
17.01.2020 00:00:00 7,4 5,1 26 14 35 19 S 1018,3 25 0 0,0
16.01.2020 23:00:00 7,6 5,3 23 12 33 18 SSE 1018,8 23 0 0,0
16.01.2020 22:00:00 7,2 5,2 23 13 33 18 SSE 1019,3 21 0 0,0
16.01.2020 21:00:00 7,3 4,9 23 12 35 19 SSE 1019,8 23 0 0,0
16.01.2020 20:00:00 7,6 5,0 22 12 34 18 SSE 1020,7 23 0 0,0
16.01.2020 19:00:00 7,2 5,4 22 12 33 18 SSE 1021,6 19 0 0,0
16.01.2020 18:00:00 7,3 5,4 20 11 29 16 SSE 1021,7 17 0 0,0
16.01.2020 17:00:00 6,9 5,4 16 9 26 14 SSE 1022,3 17 0 0,0
16.01.2020 16:00:00 6,9 5,2 18 10 27 15 S 1022,8 17 36 0,0
16.01.2020 15:00:00 7,1 5,3 19 10 31 17 S 1023,2 16 12 0,0
16.01.2020 14:00:00 7,0 5,5 20 11 29 16 SSW 1023,8 10 27 0,0
16.01.2020 13:00:00 6,8 5,4 21 11 38 20 SSW 1023,7 9 42 0,0
16.01.2020 12:00:00 6,0 5,2 26 14 39 21 SW 1024,1 4,7 0 0,0
16.01.2020 11:00:00 6,4 5,3 24 13 41 22 SW 1024,1 8 0 0,0
16.01.2020 10:00:00 6,4 5,2 26 14 42 23 SW 1023,8 9 23 0,0
16.01.2020 09:00:00 6,2 5,0 27 15 50 27 SW 1023,0 10 0 0,0
16.01.2020 08:00:00 6,9 5,3 30 16 44 24 SW 1022,1 14 0 0,0
16.01.2020 07:00:00 6,9 5,5 29 16 46 25 SW 1021,4 12 0 0,0
16.01.2020 06:00:00 7,1 5,8 32 17 48 26 SW 1020,8 11 0 0,0
16.01.2020 05:00:00 7,1 5,9 32 17 51 28 SW 1020,0 11 0 0,0
16.01.2020 04:00:00 7,2 6,0 32 17 48 26 SW 1019,0 12 0 0,0
16.01.2020 03:00:00 7,3 6,1 32 17 51 27 WSW 1018,5 11 0 0,0
16.01.2020 02:00:00 7,2 5,8 33 18 50 27 WSW 1017,6 13 0 0,0
16.01.2020 01:00:00 7,1 5,7 32 17 54 29 SW 1017,0 13 0 0,0
16.01.2020 00:00:00 7,2 5,7 34 19 53 29 WSW 1015,9 15 0 0,0
15.01.2020 23:00:00 7,0 5,3 35 19 50 27 SW 1014,7 17 0 0,0
15.01.2020 22:00:00 7,0 5,3 29 16 43 23 SW 1014,0 25 0 0,0
15.01.2020 21:00:00 6,9 5,4 28 15 41 22 SW 1012,8 24 0 0,0
15.01.2020 20:00:00 6,9 5,2 27 14 38 20 SW 1011,4 25 0 0,0
15.01.2020 19:00:00 7,2 4,9 23 12 41 22 WSW 1010,0 28 0 0,1
15.01.2020 18:00:00 7,1 4,9 29 16 42 23 W 1008,8 20 0 0,4
15.01.2020 17:00:00 7,4 5,7 36 20 57 31 WSW 1006,9 13 0 0,4
15.01.2020 16:00:00 9,1 6,8 37 20 52 28 SSW 1005,2 14 0 0,0
15.01.2020 15:00:00 9,2 6,4 36 19 55 30 SW 1004,7 13 0 0,2
15.01.2020 14:00:00 9,2 7,0 37 20 61 33 SW 1004,6 8 0 0,0
15.01.2020 13:00:00 9,6 6,2 34 19 - - SSW 1004,6 15 0 -
15.01.2020 12:00:00 - - - - - - - - - - -
15.01.2020 11:00:00 - - - - - - - - - - -
15.01.2020 10:00:00 - - - - - - - - - - -
15.01.2020 09:00:00 - - - - - - - - - - -
15.01.2020 08:00:00 - - - - - - - - - - -
15.01.2020 07:00:00 - - - - - - - - - - -
15.01.2020 06:00:00 - - - - - - - - - - -
15.01.2020 05:00:00 - - - - - - - - - - -
15.01.2020 04:00:00 - - - - - - - - - - -
15.01.2020 03:00:00 - - - - - - - - - - -
15.01.2020 02:00:00 - - - - - - - - - - -
15.01.2020 01:00:00 - - - - - - - - - - -
15.01.2020 00:00:00 - - - - - - - - - - -
14.01.2020 23:00:00 - - - - - - - - - - -
14.01.2020 22:00:00 - - - - - - - - - - -
14.01.2020 21:00:00 - - - - - - - - - - -
14.01.2020 20:00:00 - - - - - - - - - - -
14.01.2020 19:00:00 - - - - - - - - - - -
14.01.2020 18:00:00 - - - - - - - - - - -
14.01.2020 17:00:00 - - - - - - - - - - -
14.01.2020 16:00:00 - - - - - - - - - - -
14.01.2020 15:00:00 - - - - - - - - - - -
14.01.2020 14:00:00 - - - - - - - - - - -
14.01.2020 13:00:00 - - - - - - - - - - -
14.01.2020 12:00:00 - - - - - - - - - - -
14.01.2020 11:00:00 - - - - - - - - - - -
14.01.2020 10:00:00 - - - - - - - - - - -
14.01.2020 09:00:00 - - - - - - - - - - -
14.01.2020 08:00:00 - - - - - - - - - - -
14.01.2020 07:00:00 - - - - - - - - - - -
14.01.2020 06:00:00 - - - - - - - - - - -
14.01.2020 05:00:00 - - - - - - - - - - -
14.01.2020 04:00:00 - - - - - - - - - - -
14.01.2020 03:00:00 - - - - - - - - - - -
14.01.2020 02:00:00 - - - - - - - - - - -
14.01.2020 01:00:00 - - - - - - - - - - -
14.01.2020 00:00:00 - - - - - - - - - - -
13.01.2020 23:00:00 - - - - - - - - - - -
13.01.2020 22:00:00 - - - - - - - - - - -
13.01.2020 21:00:00 - - - - - - - - - - -
13.01.2020 20:00:00 - - - - - - - - - - -
13.01.2020 19:00:00 - - - - - - - - - - -
13.01.2020 18:00:00 - - - - - - - - - - -
13.01.2020 17:00:00 - - - - - - - - - - -
13.01.2020 16:00:00 - - - - - - - - - - -
13.01.2020 15:00:00 - - - - - - - - - - -
13.01.2020 14:00:00 - - - - - - - - - - -
13.01.2020 13:00:00 - - - - - - - - - - -
13.01.2020 12:00:00 - - - - - - - - - - -
13.01.2020 11:00:00 - - - - - - - - - - -
13.01.2020 10:00:00 - - - - - - - - - - -
13.01.2020 09:00:00 - - - - - - - - - - -
13.01.2020 08:00:00 - - - - - - - - - - -
13.01.2020 07:00:00 - - - - - - - - - - -
13.01.2020 06:00:00 - - - - - - - - - - -
13.01.2020 05:00:00 - - - - - - - - - - -
13.01.2020 04:00:00 - - - - - - - - - - -
13.01.2020 03:00:00 - - - - - - - - - - -
13.01.2020 02:00:00 - - - - - - - - - - -
13.01.2020 01:00:00 - - - - - - - - - - -
13.01.2020 00:00:00 - - - - - - - - - - -
12.01.2020 23:00:00 - - - - - - - - - - -
12.01.2020 22:00:00 - - - - - - - - - - -
12.01.2020 21:00:00 - - - - - - - - - - -
12.01.2020 20:00:00 - - - - - - - - - - -
12.01.2020 19:00:00 - - - - - - - - - - -
12.01.2020 18:00:00 - - - - - - - - - - -
12.01.2020 17:00:00 - - - - - - - - - - -
12.01.2020 16:00:00 - - - - - - - - - - -
12.01.2020 15:00:00 - - - - - - - - - - -
12.01.2020 14:00:00 - - - - - - - - - - -
12.01.2020 13:00:00 - - - - - - - - - - -
12.01.2020 12:00:00 - - - - - - - - - - -

tt = temperature
td = dewpoint
ff = wind speed
fx = gusts
dd = wind direction
ppp = reduced air pressure
vv = visibility
sd = sunshine duration
rr = precipitation

Next stations